Flag Weather past 2 weeks in Andorra La Vella, Andorra

Now
66 °F

Clear.


Feels Like: 66 °F
Forecast: 42 / 47 °F
Wind: 16 mph from East

Location: Carcassonne Airport

Current Time: Nov 28, 2014 at 3:46:50 PM

Latest Report: Nov 28, 2014 at 3:00 PM


Visibility: N/A

Pressure: 29.36 "Hg

Humidity: 56%

Dew point: 50 °F

Location of Andorra La VellaLocation

Historic Weather in Andorra La Vella — Graph

°F

Andorra La Vella temperature yesterday

Maximum temperature yesterday: 59 °F (at 1:00 PM)
Minimum temperature yesterday: 52 °F (at 7:00 AM)
Average temperature yesterday: 56 °F

Past Weeks' High & Low Weather Summary

 TemperatureHumidityPressure
High68 °F (Nov 28, 1:00 PM)100% (Nov 16, 2:00 AM)30.15 "Hg (Nov 16, 2:00 AM)
Low36 °F (Nov 19, 4:30 AM)39% (Nov 16, 2:30 PM)29.30 "Hg (Nov 28, 7:30 AM)
Average56 °F84%29.88 "Hg
* Reported Nov 13 2:00 PM — Nov 28 2:30 PM, Andorra La Vella, Weather by CustomWeather, © 2014

Note: Actual official high and low records may vary slightly from our data, if they occured in-between our weather recording intervals... More about our weather records

Advertising

Andorra La Vella weather history for previous 24 hours

 ConditionsComfort  
Time TempWeatherWind HumidityBarometerVisibility
2:30 PM
Nov 28
68 °FClear.14 mph46%29.33 "HgN/A
2:00 PM68 °FClear.13 mph49%29.33 "HgN/A
1:30 PM68 °FClear.13 mph49%29.33 "HgN/A
1:00 PM68 °FClear.20 mph60%29.30 "HgN/A
12:30 PM66 °FClear.22 mph64%29.30 "HgN/A
12:00 PM66 °FClear.23 mph60%29.33 "HgN/A
11:30 AM66 °FClear.24 mph64%29.33 "HgN/A
11:00 AM61 °FClear.23 mph77%29.33 "HgN/A
10:30 AM61 °FClear.20 mph72%29.33 "HgN/A
10:00 AM57 °FClear.15 mph82%29.30 "HgN/A
9:30 AM59 °FCool.N/A82%29.33 "HgN/A
9:00 AM59 °FCool.17 mph88%29.30 "HgN/A
8:30 AM57 °FBroken clouds.17 mph94%29.30 "HgN/A
8:00 AM59 °FRain. Mostly cloudy.18 mph88%29.33 "HgN/A
7:30 AM61 °FLight rain. Partly cloudy.12 mph77%29.30 "HgN/A
7:00 AM59 °FPassing clouds.12 mph82%29.33 "HgN/A
6:30 AM61 °FCool.8 mph83%29.33 "HgN/A
6:00 AM61 °FPassing clouds.16 mph83%29.33 "HgN/A
5:30 AM59 °FOvercast.16 mph88%29.36 "HgN/A
4:30 AM59 °FPassing clouds.17 mph82%29.39 "HgN/A
4:00 AM59 °FPartly cloudy.21 mph88%29.39 "HgN/A
3:30 AM59 °FPassing clouds.25 mph88%29.39 "HgN/A
3:00 AM59 °FClear.25 mph88%29.39 "HgN/A
2:30 AM57 °FClear.23 mph94%29.42 "HgN/A
2:00 AM57 °FClear.23 mph94%29.42 "HgN/A
1:30 AM57 °FCool.20 mph94%29.42 "HgN/A
1:00 AM57 °FClear.17 mph88%29.45 "HgN/A
12:30 AM57 °FClear.24 mph82%29.47 "HgN/A
12:00 AM57 °FClear.20 mph82%29.45 "HgN/A
11:30 PM
Nov 27
57 °FClear.21 mph88%29.47 "HgN/A
11:00 PM59 °FClear.17 mph72%29.47 "HgN/A
10:30 PM57 °FClear.15 mph82%29.47 "HgN/A
10:00 PM59 °FClear.14 mph72%29.47 "HgN/A
9:30 PM59 °FClear.13 mph77%29.47 "HgN/A
9:00 PM57 °FClear.20 mph82%29.50 "HgN/A
8:30 PM57 °FClear.20 mph77%29.50 "HgN/A
8:00 PM59 °FClear.20 mph68%29.50 "HgN/A
7:30 PM57 °FClear.13 mph77%29.50 "HgN/A
7:00 PM57 °FClear.14 mph77%29.50 "HgN/A
6:30 PM57 °FClear.14 mph82%29.50 "HgN/A
6:00 PM57 °FClear.17 mph77%29.50 "HgN/A
5:30 PM57 °FClear.16 mph77%29.53 "HgN/A
5:00 PM59 °FClear.15 mph77%29.53 "HgN/A
4:30 PM59 °FClear.15 mph77%29.53 "HgN/A
Weather by CustomWeather, © 2014

See weather overviewHow to use our weather pages